Location: Doverdale
(52.2833°N, 2.2000°W)
Time: 02:16:06
(UTC+00:00)

Cosmos 1980 Rocket - Pass Details

Date: 03 March 2021
Orbit: 828 x 851 km, 71.0° (Epoch: 15 April)

Event Time Altitude Azimuth Distance (km) Brightness Sun altitude
Rises 20:39:59 0° 277° (W) 3,410 6.5 -25.9°
Reaches altitude 10° 20:43:28 10° 299° (WNW) 2,481 5.7 -26.4°
Maximum altitude 20:46:54 16° 336° (NNW) 2,084 4.8 -26.8°
Drops below altitude 10° 20:50:22 10° 14° (NNE) 2,490 4.8 -27.3°
Sets 20:53:53 0° 36° (NE) 3,429 5.3 -27.8°
Enters shadow 20:53:58 - 36° (NE) 3,453 5.3 -27.8°
